York, NE

3:51 PM CST on December 06, 2019 (GMT -0600)
York Municipal

Weather History for KJYR - October, 2019

Change the Weather History Date:

Wednesday, October 23, 2019

  Actual Average Record
Temperature  
Mean Temperature 48 °F -  
Max Temperature 59 °F 64 °F 85 °F (1991)
Min Temperature 37 °F 40 °F 19 °F (2006)
Degree Days  
Heating Degree Days 17    
Moisture  
Dew Point 37 °F    
Average Humidity 66    
Maximum Humidity 87    
Minimum Humidity 39    
Precipitation  
Precipitation 0.00 in - - ()
Sea Level Pressure  
Sea Level Pressure 29.93 in    
Wind  
Wind Speed 11 mph (NW)    
Max Wind Speed 28 mph    
Max Gust Speed 39 mph    
Visibility 10 miles    
Events Rain    
Averages and records for this station are not official NWS values.
T = Trace of Precipitation, MM = Missing Value Source: NWS Daily Summary

Daily Weather History Graph

Daily Weather History Graph

Search for Another Location

Airport or City:

Astronomy

Oct. 23, 2019 Rise Set
Actual Time 7:50 AM CDT 6:38 PM CDT
Civil Twilight 7:22 AM CDT 7:06 PM CDT
Nautical Twilight 6:50 AM CDT 7:38 PM CDT
Astronomical Twilight 6:18 AM CDT 8:10 PM CDT
Moon 2:07 AM CDT (10/23) 4:32 PM CDT (10/23)
Length of Visible Light 11h 43m
Length of Day
10h 47m
Waning Crescent, 26% of the Moon is Illuminated
Oct 23
Waning Crescent
Oct 27
New
Nov 4
First Quarter
Nov 12
Full
Nov 19
Last Quarter

Hourly Weather History & Observations

Time (CDT) Temp. Windchill Dew Point Humidity Pressure Visibility Wind Dir Wind Speed Gust Speed Precip Events Conditions
12:15 AM 46.4 °F 41.5 °F 32.0 °F 57% 29.87 in 10.0 mi SW 10.4 mph - N/A   Overcast
12:35 AM 50.0 °F - 35.6 °F 58% 29.87 in 10.0 mi WSW 10.4 mph - N/A Rain Light Rain
12:55 AM 48.2 °F - 41.0 °F 76% 29.86 in 10.0 mi West 3.5 mph - N/A Rain Light Rain
1:15 AM 48.2 °F - 39.2 °F 71% 29.83 in 10.0 mi SSE 3.5 mph - N/A Rain Light Rain
1:35 AM 48.2 °F - 41.0 °F 76% 29.81 in 10.0 mi Calm Calm - N/A   Overcast
1:55 AM 46.4 °F 44.3 °F 41.0 °F 81% 29.81 in 10.0 mi South 4.6 mph - N/A   Overcast
2:15 AM 46.4 °F 42.9 °F 41.0 °F 81% 29.82 in 10.0 mi South 6.9 mph - N/A   Overcast
2:35 AM 46.4 °F 42.9 °F 41.0 °F 81% 29.82 in 10.0 mi SSW 6.9 mph - N/A   Overcast
2:55 AM 46.4 °F 41.9 °F 41.0 °F 81% 29.82 in 10.0 mi SSW 9.2 mph - N/A   Overcast
3:15 AM 46.4 °F 43.5 °F 39.2 °F 76% 29.81 in 10.0 mi South 5.8 mph - N/A   Overcast
3:35 AM 46.4 °F 43.5 °F 39.2 °F 76% 29.80 in 10.0 mi SSW 5.8 mph - N/A   Overcast
3:55 AM 44.6 °F - 39.2 °F 81% 29.78 in 10.0 mi Calm Calm - N/A   Mostly Cloudy
4:15 AM 44.6 °F 43.1 °F 39.2 °F 81% 29.78 in 10.0 mi South 3.5 mph - N/A   Mostly Cloudy
4:35 AM 44.6 °F - 39.2 °F 81% 29.78 in 10.0 mi Calm Calm - N/A   Mostly Cloudy
4:55 AM 44.6 °F 40.7 °F 41.0 °F 87% 29.78 in 10.0 mi SSW 6.9 mph - N/A   Overcast
5:15 AM 46.4 °F 44.3 °F 39.2 °F 76% 29.75 in 10.0 mi South 4.6 mph - N/A   Overcast
5:35 AM 46.4 °F 44.3 °F 39.2 °F 76% 29.76 in 10.0 mi SW 4.6 mph - N/A   Partly Cloudy
5:55 AM 46.4 °F 42.4 °F 39.2 °F 76% 29.76 in 10.0 mi SSW 8.1 mph - N/A   Clear
6:15 AM 46.4 °F 42.4 °F 39.2 °F 76% 29.76 in 10.0 mi SSW 8.1 mph - N/A   Clear
6:35 AM 46.4 °F 41.9 °F 37.4 °F 71% 29.76 in 10.0 mi SSW 9.2 mph - N/A   Clear
6:55 AM 46.4 °F 41.5 °F 35.6 °F 66% 29.76 in 10.0 mi SSW 10.4 mph - N/A   Partly Cloudy
7:15 AM 44.6 °F 39.7 °F 35.6 °F 71% 29.75 in 10.0 mi SSW 9.2 mph - N/A   Scattered Clouds
7:35 AM 44.6 °F 40.2 °F 35.6 °F 71% 29.76 in 10.0 mi SSW 8.1 mph - N/A   Partly Cloudy
7:55 AM 42.8 °F 37.5 °F 35.6 °F 76% 29.76 in 10.0 mi SW 9.2 mph - N/A   Clear
8:15 AM 42.8 °F 37.5 °F 35.6 °F 76% 29.78 in 10.0 mi WSW 9.2 mph - N/A   Clear
8:35 AM 44.6 °F 39.2 °F 37.4 °F 76% 29.79 in 10.0 mi West 10.4 mph - N/A   Clear
8:55 AM 46.4 °F 41.1 °F 37.4 °F 71% 29.80 in 10.0 mi WNW 11.5 mph - N/A   Clear
9:55 AM 50.0 °F - 42.8 °F 76% 29.82 in 10.0 mi NW 21.9 mph 27.6 mph N/A   Partly Cloudy
10:15 AM 50.0 °F - 42.8 °F 76% 29.82 in 10.0 mi NNW 20.7 mph 26.5 mph N/A   Mostly Cloudy
10:35 AM 51.8 °F - 42.8 °F 71% 29.83 in 10.0 mi North - - N/A   Partly Cloudy
10:55 AM 51.8 °F - 42.8 °F 71% 29.84 in 10.0 mi North - - N/A   Scattered Clouds
11:35 AM 55.4 °F - 42.8 °F 63% 29.85 in 10.0 mi NW 26.5 mph 33.4 mph N/A   Clear
11:55 AM 55.4 °F - 41.0 °F 58% 29.86 in 10.0 mi NNW 27.6 mph 38.0 mph N/A   Clear
12:15 PM 57.2 °F - 41.0 °F 55% 29.88 in 10.0 mi NNW 27.6 mph 39.1 mph N/A   Clear
12:35 PM 57.2 °F - 39.2 °F 51% 29.89 in 10.0 mi NNW 26.5 mph 33.4 mph N/A   Clear
12:55 PM 57.2 °F - 39.2 °F 51% 29.89 in 10.0 mi NNW 17.3 mph 24.2 mph N/A   Clear
1:15 PM 59.0 °F - 37.4 °F 45% 29.89 in 10.0 mi NNW 20.7 mph 31.1 mph N/A   Clear
1:35 PM 59.0 °F - 35.6 °F 42% 29.89 in 10.0 mi NW 24.2 mph 32.2 mph N/A   Clear
1:55 PM 59.0 °F - 35.6 °F 42% 29.90 in 10.0 mi NNW 24.2 mph 28.8 mph N/A   Partly Cloudy
2:15 PM 59.0 °F - 35.6 °F 42% 29.90 in 10.0 mi NNW 19.6 mph 29.9 mph N/A   Partly Cloudy
2:35 PM 59.0 °F - 35.6 °F 42% 29.90 in 10.0 mi NNW 20.7 mph 29.9 mph N/A   Scattered Clouds
2:55 PM 59.0 °F - 35.6 °F 42% 29.90 in 10.0 mi NNW 21.9 mph 31.1 mph N/A   Partly Cloudy
3:15 PM 57.2 °F - 33.8 °F 41% 29.90 in 10.0 mi NW 23.0 mph 28.8 mph N/A   Partly Cloudy
3:35 PM 59.0 °F - 33.8 °F 39% 29.91 in 10.0 mi NNW 18.4 mph 27.6 mph N/A   Partly Cloudy
3:55 PM 59.0 °F - 33.8 °F 39% 29.92 in 10.0 mi NNW 19.6 mph 26.5 mph N/A   Partly Cloudy
4:15 PM 59.0 °F - 35.6 °F 42% 29.93 in 10.0 mi NNW 15.0 mph 25.3 mph N/A   Clear
4:35 PM 59.0 °F - 33.8 °F 39% 29.94 in 10.0 mi NNW 21.9 mph 25.3 mph N/A   Clear
4:55 PM 57.2 °F - 35.6 °F 44% 29.95 in 10.0 mi NNW 10.4 mph 19.6 mph N/A   Clear
5:15 PM 57.2 °F - 35.6 °F 44% 29.96 in 10.0 mi North 10.4 mph 24.2 mph N/A   Clear
5:35 PM 57.2 °F - 33.8 °F 41% 29.98 in 10.0 mi North 11.5 mph 16.1 mph N/A   Clear
5:55 PM 55.4 °F - 33.8 °F 44% 29.99 in 10.0 mi North 11.5 mph 18.4 mph N/A   Clear
6:15 PM 53.6 °F - 33.8 °F 47% 30.00 in 10.0 mi North 13.8 mph 18.4 mph N/A   Clear
6:35 PM 51.8 °F - 35.6 °F 54% 30.02 in 10.0 mi North 8.1 mph - N/A   Clear
6:55 PM 50.0 °F - 37.4 °F 62% 30.04 in 10.0 mi North 10.4 mph 24.2 mph N/A   Clear
7:15 PM 50.0 °F - 37.4 °F 62% 30.07 in 10.0 mi North 15.0 mph 18.4 mph N/A   Clear
7:35 PM 48.2 °F - 39.2 °F 71% 30.09 in 10.0 mi NNE 9.2 mph 17.3 mph N/A   Clear
7:55 PM 48.2 °F - 39.2 °F 71% 30.11 in 10.0 mi North 15.0 mph 26.5 mph N/A   Mostly Cloudy
8:15 PM 46.4 °F 39.5 °F 39.2 °F 76% 30.12 in 10.0 mi North 17.3 mph 29.9 mph N/A   Overcast
8:35 PM 44.6 °F 37.4 °F 39.2 °F 81% 30.15 in 10.0 mi North 16.1 mph 29.9 mph N/A   Overcast
8:55 PM 41.0 °F 32.5 °F 37.4 °F 87% 30.17 in 10.0 mi North 17.3 mph 26.5 mph N/A   Overcast
9:15 PM 41.0 °F 33.5 °F 35.6 °F 81% 30.21 in 10.0 mi North 13.8 mph 20.7 mph N/A   Overcast
9:35 PM 39.2 °F 30.2 °F 35.6 °F 87% 30.23 in 10.0 mi North 17.3 mph 24.2 mph N/A   Overcast
9:55 PM 39.2 °F 30.8 °F 33.8 °F 81% 30.25 in 10.0 mi North 15.0 mph 19.6 mph N/A   Overcast
10:15 PM 37.4 °F 27.5 °F 32.0 °F 81% 30.26 in 10.0 mi North 18.4 mph 27.6 mph N/A   Overcast
10:35 PM 37.4 °F 29.3 °F 32.0 °F 81% 30.26 in 10.0 mi North 12.7 mph 23.0 mph N/A   Overcast
10:55 PM 37.4 °F 28.9 °F 32.0 °F 81% 30.28 in 10.0 mi North 13.8 mph 24.2 mph N/A   Overcast
11:15 PM 37.4 °F 29.3 °F 32.0 °F 81% 30.29 in 10.0 mi North 12.7 mph 21.9 mph N/A   Overcast
11:35 PM 37.4 °F 29.3 °F 32.0 °F 81% 30.30 in 10.0 mi North 12.7 mph 21.9 mph N/A   Overcast
11:55 PM 37.4 °F 31.4 °F 32.0 °F 81% 30.31 in 10.0 mi North 8.1 mph 19.6 mph N/A   Overcast